When you browse on this site, cookies collect data to enhance your experience and personalize the content and advertising you see.
Visit our Privacy Policy to learn more. By continuing to use the site, you agree to this use of cookies and data.
  • In Switzerland
  • List of Countries
  • For 7 days
  • Water Temperature
  • Satellite Maps
  • Weather Map
  • Weather Widgets
  • user-avatar
    Login

    Hourly Weather Zaranj

    Today, 25 April, Thursday

    Time Temperature Precipitation Wind Pressure Humidity
    00:00 +17°C° 0 mm 13 mps 719 mmHg 35%
    01:00 +15°C° 0 mm 13 mps 719 mmHg 36%
    02:00 +15°C° 0 mm 13 mps 720 mmHg 37%
    03:00 +14°C° 0 mm 14 mps 720 mmHg 38%
    04:00 +13°C° 0 mm 15 mps 720 mmHg 40%
    05:00 +13°C° 0 mm 14 mps 720 mmHg 39%
    06:00 +14°C° 0 mm 13 mps 721 mmHg 39%
    07:00 +14°C° 0 mm 12 mps 721 mmHg 38%
    08:00 +15°C° 0 mm 12 mps 722 mmHg 35%
    09:00 +18°C° 0 mm 12 mps 722 mmHg 31%
    10:00 +19°C° 0 mm 11 mps 722 mmHg 28%
    11:00 +21°C° 0 mm 11 mps 722 mmHg 25%
    12:00 +22°C° 0 mm 10 mps 722 mmHg 23%
    13:00 +24°C° 0 mm 9 mps 721 mmHg 20%
    14:00 +24°C° 0 mm 8 mps 721 mmHg 19%
    15:00 +24°C° 0 mm 8 mps 721 mmHg 19%
    16:00 +26°C° 0 mm 7 mps 720 mmHg 18%
    17:00 +24°C° 0 mm 7 mps 720 mmHg 19%
    18:00 +24°C° 0 mm 7 mps 720 mmHg 20%
    19:00 +23°C° 0 mm 6 mps 720 mmHg 20%
    20:00 +22°C° 0 mm 7 mps 720 mmHg 23%
    21:00 +21°C° 0 mm 8 mps 720 mmHg 25%
    22:00 +19°C° 0 mm 9 mps 720 mmHg 28%
    23:00 +19°C° 0 mm 9 mps 720 mmHg 30%

    Tomorrow, 26 April, Friday

    Time Temperature Precipitation Wind Pressure Humidity
    00:00 +18°C° 0 mm 10 mps 720 mmHg 32%
    01:00 +17°C° 0 mm 11 mps 720 mmHg 34%
    02:00 +17°C° 0 mm 10 mps 720 mmHg 34%
    03:00 +16°C° 0 mm 10 mps 720 mmHg 34%
    04:00 +16°C° 0 mm 10 mps 720 mmHg 34%
    05:00 +16°C° 0 mm 10 mps 720 mmHg 34%
    06:00 +16°C° 0 mm 10 mps 720 mmHg 34%
    07:00 +16°C° 0 mm 11 mps 721 mmHg 33%
    08:00 +18°C° 0 mm 11 mps 721 mmHg 29%
    09:00 +19°C° 0 mm 10 mps 721 mmHg 25%
    10:00 +22°C° 0 mm 10 mps 721 mmHg 21%
    11:00 +23°C° 0 mm 10 mps 721 mmHg 19%
    12:00 +24°C° 0 mm 9 mps 721 mmHg 17%
    13:00 +27°C° 0 mm 8 mps 720 mmHg 15%
    14:00 +27°C° 0 mm 8 mps 720 mmHg 15%
    15:00 +27°C° 0 mm 7 mps 719 mmHg 15%
    16:00 +28°C° 0 mm 7 mps 719 mmHg 14%
    17:00 +27°C° 0 mm 7 mps 719 mmHg 16%
    18:00 +26°C° 0 mm 7 mps 719 mmHg 17%
    19:00 +24°C° 0 mm 7 mps 719 mmHg 19%
    20:00 +23°C° 0 mm 8 mps 720 mmHg 21%
    21:00 +22°C° 0 mm 8 mps 720 mmHg 23%
    22:00 +22°C° 0 mm 9 mps 720 mmHg 25%
    23:00 +21°C° 0 mm 9 mps 720 mmHg 27%

    Day after tomorrow, 27 April, Saturday

    Time Temperature Precipitation Wind Pressure Humidity
    00:00 +19°C° 0 mm 9 mps 720 mmHg 29%
    01:00 +19°C° 0 mm 10 mps 720 mmHg 31%
    02:00 +18°C° 0 mm 10 mps 720 mmHg 31%
    03:00 +18°C° 0 mm 10 mps 720 mmHg 32%
    04:00 +17°C° 0 mm 10 mps 720 mmHg 33%
    05:00 +18°C° 0 mm 10 mps 720 mmHg 32%
    06:00 +18°C° 0 mm 10 mps 721 mmHg 31%
    07:00 +18°C° 0 mm 10 mps 721 mmHg 30%
    08:00 +21°C° 0 mm 9 mps 721 mmHg 27%
    09:00 +22°C° 0 mm 9 mps 722 mmHg 23%
    10:00 +24°C° 0 mm 9 mps 722 mmHg 20%
    11:00 +26°C° 0 mm 8 mps 721 mmHg 18%
    12:00 +27°C° 0 mm 8 mps 721 mmHg 16%
    13:00 +29°C° 0 mm 7 mps 721 mmHg 15%
    14:00 +29°C° 0 mm 7 mps 720 mmHg 14%
    15:00 +29°C° 0 mm 6 mps 720 mmHg 14%
    16:00 +30°C° 0 mm 6 mps 719 mmHg 13%
    17:00 +29°C° 0 mm 6 mps 719 mmHg 15%
    18:00 +28°C° 0 mm 6 mps 719 mmHg 16%
    19:00 +27°C° 0 mm 6 mps 719 mmHg 17%
    20:00 +27°C° 0 mm 6 mps 720 mmHg 19%
    21:00 +26°C° 0 mm 7 mps 720 mmHg 21%
    22:00 +24°C° 0 mm 8 mps 720 mmHg 23%
    23:00 +23°C° 0 mm 8 mps 720 mmHg 24%

    28 April, Sunday

    Time Temperature Precipitation Wind Pressure Humidity
    00:00 +23°C° 0 mm 8 mps 720 mmHg 26%
    01:00 +22°C° 0 mm 8 mps 720 mmHg 27%
    02:00 +21°C° 0 mm 8 mps 719 mmHg 29%
    03:00 +21°C° 0 mm 8 mps 719 mmHg 30%
    04:00 +20°C° 0 mm 8 mps 719 mmHg 31%
    05:00 +21°C° 0 mm 8 mps 719 mmHg 31%
    06:00 +21°C° 0 mm 8 mps 720 mmHg 30%
    07:00 +21°C° 0 mm 8 mps 720 mmHg 30%
    08:00 +23°C° 0 mm 7 mps 720 mmHg 26%
    09:00 +24°C° 0 mm 7 mps 720 mmHg 23%
    10:00 +27°C° 0 mm 7 mps 721 mmHg 19%
    11:00 +28°C° 0 mm 6 mps 720 mmHg 17%
    12:00 +30°C° 0 mm 5 mps 719 mmHg 15%
    13:00 +32°C° 0 mm 4 mps 719 mmHg 13%
    14:00 +32°C° 0 mm 4 mps 718 mmHg 13%
    15:00 +33°C° 0 mm 3 mps 718 mmHg 12%
    16:00 +33°C° 0 mm 3 mps 717 mmHg 12%
    17:00 +33°C° 0 mm 3 mps 717 mmHg 12%
    18:00 +31°C° 0 mm 2 mps 717 mmHg 13%
    19:00 +30°C° 0 mm 2 mps 717 mmHg 14%
    20:00 +30°C° 0 mm 3 mps 717 mmHg 14%
    21:00 +29°C° 0 mm 3 mps 717 mmHg 15%
    22:00 +28°C° 0 mm 3 mps 717 mmHg 16%
    23:00 +27°C° 0 mm 3 mps 717 mmHg 18%

    29 April, Monday

    Time Temperature Precipitation Wind Pressure Humidity
    00:00 +27°C° 0 mm 4 mps 716 mmHg 19%
    01:00 +26°C° 0 mm 4 mps 715 mmHg 21%
    02:00 +25°C° 0 mm 4 mps 715 mmHg 22%
    03:00 +25°C° 0 mm 4 mps 715 mmHg 23%
    04:00 +23°C° 0 mm 4 mps 714 mmHg 24%
    05:00 +25°C° 0 mm 5 mps 715 mmHg 24%
    06:00 +25°C° 0 mm 5 mps 715 mmHg 24%
    07:00 +24°C° 0 mm 6 mps 715 mmHg 24%
    08:00 +26°C° 0 mm 6 mps 716 mmHg 22%
    09:00 +28°C° 0 mm 7 mps 716 mmHg 20%
    10:00 +29°C° 0 mm 7 mps 716 mmHg 18%
    11:00 +31°C° 0 mm 8 mps 715 mmHg 17%
    12:00 +32°C° 0 mm 8 mps 715 mmHg 16%
    13:00 +33°C° 0 mm 9 mps 715 mmHg 15%
    14:00 +34°C° 0 mm 8 mps 714 mmHg 15%
    15:00 +34°C° 0 mm 7 mps 714 mmHg 15%
    16:00 +34°C° 0 mm 7 mps 714 mmHg 16%
    17:00 +32°C° 0 mm 7 mps 714 mmHg 19%
    18:00 +30°C° 0 mm 7 mps 715 mmHg 22%
    19:00 +29°C° 0 mm 8 mps 715 mmHg 26%
    20:00 +28°C° 0 mm 7 mps 715 mmHg 26%
    21:00 +28°C° 0 mm 7 mps 716 mmHg 26%
    22:00 +27°C° 0 mm 7 mps 716 mmHg 27%
    23:00 +27°C° 0 mm 7 mps 716 mmHg 27%

    30 April, Tuesday

    Time Temperature Precipitation Wind Pressure Humidity
    00:00 +26°C° 0 mm 6 mps 716 mmHg 27%
    01:00 +24°C° 0 mm 6 mps 716 mmHg 28%
    02:00 +24°C° 0 mm 6 mps 716 mmHg 29%
    03:00 +23°C° 0 mm 6 mps 716 mmHg 30%
    04:00 +23°C° 0 mm 6 mps 716 mmHg 31%
    05:00 +23°C° 0 mm 7 mps 717 mmHg 30%
    06:00 +24°C° 0 mm 8 mps 717 mmHg 29%
    07:00 +24°C° 0 mm 9 mps 718 mmHg 27%
    08:00 +26°C° 0 mm 9 mps 718 mmHg 24%
    09:00 +28°C° 0 mm 9 mps 718 mmHg 21%
    10:00 +29°C° 0 mm 9 mps 718 mmHg 18%
    11:00 +31°C° 0 mm 9 mps 718 mmHg 16%
    12:00 +32°C° 0 mm 9 mps 717 mmHg 14%
    13:00 +34°C° 0 mm 8 mps 716 mmHg 11%
    14:00 +34°C° 0 mm 8 mps 716 mmHg 11%
    15:00 +34°C° 0 mm 8 mps 716 mmHg 10%
    16:00 +34°C° 0 mm 8 mps 715 mmHg 10%
    17:00 +33°C° 0 mm 7 mps 715 mmHg 11%
    18:00 +32°C° 0 mm 6 mps 715 mmHg 12%
    19:00 +32°C° 0 mm 5 mps 715 mmHg 12%
    20:00 +30°C° 0 mm 5 mps 716 mmHg 14%
    21:00 +29°C° 0 mm 5 mps 716 mmHg 16%
    22:00 +28°C° 0 mm 6 mps 716 mmHg 17%
    23:00 +28°C° 0 mm 5 mps 716 mmHg 19%
    Show more